Погода в Малой Ельне

Россия / Нижегородская область     56°12′19″N   44°08′52″E
темп.,
°C
ветер,
м/с
пор.,
м/с
влажн.,
%
обл.,
%
осадки,
мм/ч
давл.,
гПа
погр.,
м
26 октября, вт
вт2600:00−1юз5137289 0.0 1025460
03:000юз61467100 0.0 1023542
06:00+1юз6137095 0.0 1022543
09:00+1зюз6137333 0.0 1021533
12:00+4зюз61065100 0.0 1020632
15:00+4зюз5116495 0.0 1019694
18:00+3зюз5137192 0.0 1019515
21:00+3зюз51371100 0.0 1019500
27 октября, ср
ср2700:00+2юз51273100 0.0 1018466
03:00+2юз51276100 0.0 1017457
06:00+2юз51277100 0.0 1016444
09:00+3юз51271100 0.0 1015510
12:00+5юз61359100 0.0 1013686
15:00+6юз61357100 0.0 1011817
18:00+5юз71463100 0.0 1009917
21:00+3зюз71396100 0.3 1008771
28 октября, чт
чт2800:00+4зюз61390100 0.6 1009735
03:00+5з61285100 0.6 1009770
06:00+5з51085100 0.1 10091016
09:00+6зюз51079100 0.1 1010616
12:00+7зюз4872100 0.0 1010723
15:00+7зюз3579100 0.2 1009815
18:00+6ссз1291100 1.1 1010122
21:00+5с4891100 1.8 10121032
29 октября, пт
пт2900:000ссв6127136 0.1 1018721
03:00−3ссв511745 0.1 1023703
06:00−3ссв49705 0.0 1027621
09:00−2св36580 0.0 1030541
12:00+1св22405 0.0 1032681
15:00+1ю113941 0.0 1032540
18:00−2ююз245390 0.0 103380
21:00−1ююз41054100 0.0 1032319
30 октября, сб
сб3000:000юз51452100 0.0 1031520
03:000юз61656100 0.0 1030484
06:00+1зюз61460100 0.0 1029447
09:00+2зюз51466100 0.0 1029444
12:00+5зюз51364100 0.0 1028471
15:00+6зюз614665 0.0 1028522
18:00+4зюз6157787 0.0 1028413
21:00+4зюз61579100 0.0 1028422